Regional Weather Roundup
Issued by NWS

Home | Current Version | Previous Version | Text Only | Print | Product List | Glossary Off
Versions: 1 2 3 4 5 6 7 8 9 10 11 12 13 14 15 16 17 18 19 20 21 22 23 24 25 26 27 28 29 30 31 32 33 34 35 36 37 38 39 40 41 42 43 44 45 46 47 48 49 50

000
ASUS43 KIND 170609
RWRIN

WEATHER ROUNDUP FOR INDIANA
NATIONAL WEATHER SERVICE INDIANAPOLIS IN
200 AM EDT THU AUG 17 2017

NOTE: "FAIR" INDICATES FEW OR NO CLOUDS BELOW 12,000 FEET WITH NO
SIGNIFICANT WEATHER AND/OR OBSTRUCTIONS TO VISIBILITY.

* - STATION DOES NOT REPORT WEATHER SUCH AS PRECIPITATION OR FOG.

+ - STATION NOT QUALITY CONTROLLED BY THE NATIONAL WEATHER SERVICE.
    USE DATA WITH CAUTION...ESPECIALLY DEWPOINT AND RELATIVE
    HUMIDITY OBSERVATIONS.

INZ001>003-010>013-019-020-170700-
NORTHWEST INDIANA

CITY           SKY/WX    TMP DP  RH WIND       PRES   REMARKS
GARY /AIRPORT/ CLOUDY    80  72  77 S12G18    29.84F
KNOX *+        PTCLDY    77  72  83 S9        29.87F
LA PORTE +     CLOUDY    76  72  86 S7        29.87F
6HR MIN TEMP:  75; 6HR MAX TEMP:  80;

MICHIGAN CITY+ MOCLDY    77  70  78 S12       29.85F
MONTICELLO +   CLOUDY    77  72  85 S12       29.88F
6HR MIN TEMP:  77; 6HR MAX TEMP:  83;

RENSSELAER +   CLOUDY    75  68  78 S8        29.87F
VALPARAISO     CLOUDY    77  74  90 S10       29.87F
6HR MIN TEMP:  77; 6HR MAX TEMP:  83; 6HR PCP: TRACE;


$$

LMZ046-743>745-170700-
SOUTHERN LAKE MICHIGAN

STATION/POSITION TIME  TEMP    WIND        PRES    WAVE
                       AIR SEA DIR/SP/G            HT
                 (UTC) (F)     (DEG/KT/KT) (MB)    (FT)
BURNS HARBOR     0540   79     180/ 13/ 19 1010.8F
MICHIGAN CITY    0540   78     170/ 12/ 17   N/A
5NW MICH CITY    0600   78 75  190/ 12/ 17   N/A     1

$$

INZ004-005-014>016-021>024-170700-
NORTH CENTRAL INDIANA

CITY           SKY/WX    TMP DP  RH WIND       PRES   REMARKS
LOGANSPORT +   CLOUDY    73  70  88 SW6       29.91F
PERU/GRISSOM   CLOUDY    76  73  88 S6        29.89F
6HR MIN TEMP:  76; 6HR MAX TEMP:  82;

ROCHESTER +    CLOUDY    77  73  88 S6        29.90F
SOUTH BEND     NOT AVBL
WARSAW +       CLOUDY    77  70  78 S5        29.90F

$$

INZ006>009-017-018-025>027-170700-
NORTHEAST INDIANA

CITY           SKY/WX    TMP DP  RH WIND       PRES   REMARKS
AUBURN +       CLOUDY    73  66  78 E3        29.93S
FORT WAYNE     CLOUDY    75  69  81 S6        29.92F
6HR MIN TEMP:  74; 6HR MAX TEMP:  83;

HUNTINGTON +   CLOUDY    75  71  86 S5        29.92S
6HR MIN TEMP:  75; 6HR MAX TEMP:  82;

KENDALLVILLE + CLOUDY    72  71  95 S9        29.93S

$$

INZ028-029-035-036-043>045-051>053-170700-
WEST CENTRAL INDIANA

CITY           SKY/WX    TMP DP  RH WIND       PRES   REMARKS
GREENCASTLE +  CLOUDY    73  73 100 CALM      29.93S FOG
LAFAYETTE      NOT AVBL
TERRE HAUTE    CLOUDY    74  71  91 SW3       29.91S
6HR MIN TEMP:  73; 6HR MAX TEMP:  81; 6HR PCP:  0.05;


$$

INZ030>032-037>040-046>048-054>057-064-065-170700-
CENTRAL INDIANA

CITY           SKY/WX    TMP DP  RH WIND       PRES   REMARKS
CP ATTERBURY + CLOUDY    73  70  88 CALM      29.93S
FRANKFORT +    CLOUDY    78  74  86 SW6       29.94S
6HR MIN TEMP:  78; 6HR MAX TEMP:  83;

GREENWOOD *+   CLOUDY    77  70  78 S7        29.94R
INDIANAPOLIS   CLOUDY    78  71  79 S9        29.92R
6HR MIN TEMP:  77; 6HR MAX TEMP:  81;

-EAGLE CREEK   CLOUDY    79  71  76 S7        29.92R
6HR MIN TEMP:  79; 6HR MAX TEMP:  83;

KOKOMO +       CLOUDY    75  72  90 S6        29.92F
6HR MIN TEMP:  75; 6HR MAX TEMP:  80;

MT COMFORT *+  CLOUDY    75  72  88 S6        29.93F
SHELBYVILLE    CLOUDY    79  70  74 S10       29.92F
6HR MIN TEMP:  76; 6HR MAX TEMP:  84;

ZIONSVILLE +   CLOUDY    76  72  86 S7        29.93S
6HR MIN TEMP:  76; 6HR MAX TEMP:  80;


$$

INZ033-034-041-042-049-050-058-059-170700-
EAST CENTRAL INDIANA

CITY           SKY/WX    TMP DP  RH WIND       PRES   REMARKS
MUNCIE         PTCLDY    79  71  76 S6        29.93F
6HR MIN TEMP:  79; 6HR MAX TEMP:  85;

RICHMOND +     PTCLDY    70  70 100 SE6       29.98S FOG

$$

INZ060-061-067>069-081>083-085>088-170700-
SOUTHWEST INDIANA

CITY           SKY/WX    TMP DP  RH WIND       PRES   REMARKS
EVANSVILLE     CLOUDY    77  73  87 SW3       29.92S
6HR MIN TEMP:  77; 6HR MAX TEMP:  82;

WASHINGTON +   CLOUDY    75  73  93 MISG      29.91S
6HR MIN TEMP:  75; 6HR MAX TEMP:  82;


$$

INZ062-063-066-070>080-084-089>092-170700-
SOUTH CENTRAL AND SOUTHEAST INDIANA

CITY           SKY/WX    TMP DP  RH WIND       PRES   REMARKS
BEDFORD +      CLOUDY    75  70  83 S6        29.93S
BLOOMINGTON    CLOUDY    75  71  87 S6        29.93S
6HR MIN TEMP:  75; 6HR MAX TEMP:  81; 6HR PCP:  0.01;

MADISON *+     PTCLDY    73  72  94 SE5       29.98F
NORTH VERNON + MOCLDY    75  70  83 SE5       29.95F
SEYMOUR +      PTCLDY    77  72  83 S3        29.93F

$$




USA.gov is the U.S. government's official web portal to all federal, state and local government web resources and services.